Regional Weather Roundup
Issued by NWS

Home | Current Version | Previous Version | Graphics & Text | Print | Product List | Glossary Off
Versions: 1 2 3 4 5 6 7 8 9 10 11 12 13 14 15 16 17 18 19 20 21 22 23 24 25 26 27 28 29 30 31 32 33 34 35 36 37 38 39 40 41 42 43 44 45 46 47 48 49 50

000
ASUS43 KMKX 292111
RWRWI

WISCONSIN REGIONAL WEATHER ROUNDUP
NATIONAL WEATHER SERVICE MILWAUKEE/SULLIVAN WI
400 PM CDT MON MAY 29 2017

NOTE: "FAIR" INDICATES FEW OR NO CLOUDS BELOW 12,000 FEET WITH NO
SIGNIFICANT WEATHER AND/OR OBSTRUCTIONS TO VISIBILITY.

WIZ001-002-006>008-014>016-023>028-292200-
NORTHWEST WISCONSIN

CITY           SKY/WX    TMP DP  RH WIND       PRES   REMARKS
SUPERIOR ARPT  NOT AVBL
ASHLAND        PTSUNNY   62  48  60 NW16      29.70S
HAYWARD        LGT RAIN  62  49  62 W9G20     29.73S
SIREN          CLOUDY    56  51  84 CALM      29.78R
CUMBERLAND     CLOUDY    55  46  71 W9G23     29.78S
RICE LAKE      LGT RAIN  57  51  78 W9        29.79R
CHETEK         LGT RAIN  55  53  91 NW6       29.78R
LADYSMITH      LGT RAIN  61  49  66 W14       29.76S
EAU CLAIRE     CLOUDY    62  47  57 W20G26    29.78R
MENOMONIE      MOSUNNY   65  48  53 W14G24    29.79S
NEW RICHMOND   PTSUNNY   62  46  55 W12G24    29.80R
OSCEOLA        PTSUNNY   62  51  68 W13       29.82S
$$

WIZ003>005-009-010-017-018-292200-
NORTH CENTRAL WISCONSIN

CITY           SKY/WX    TMP DP  RH WIND       PRES   REMARKS
MANITOWISH WTR RAIN      54  54 100 W8        29.70S
ARBOR VITAE    CLOUDY    59  53  79 NW9       29.70S
WOODRUFF       CLOUDY    59  53  79 NW9       29.70S
RHINELANDER    CLOUDY    64  50  60 W17       29.72R
EAGLE RIVER    PTSUNNY   59  44  57 W14G23    29.69S
LAND O LAKES   CLOUDY    56  52  84 W6        29.70S
PHILLIPS       CLOUDY    63  47  55 W8G17     29.70S
TOMAHAWK       CLOUDY    59  46  62 W13G23    29.72F
MEDFORD        LGT RAIN  56  46  68 W16G22    29.75R
MERRILL        RAIN      57  48  71 W12G22    29.74R
$$

WIZ029-030-035-036-043>047-292200-
CENTRAL WISCONSIN

CITY           SKY/WX    TMP DP  RH WIND       PRES   REMARKS
WAUSAU         CLOUDY    64  47  53 W21G29    29.73S
MOSINEE        PTSUNNY   63  46  55 W18G28    29.76S
MARSHFIELD     RAIN      58  49  72 SW17G24   29.77R
STEVENS POINT  CLOUDY    57  47  71 W16G23    29.78R
WAUPACA        MOSUNNY   68  47  46 W16       29.77S
WAUTOMA        PTSUNNY   68  46  45 MISG        N/A
WISC RAPIDS    PTSUNNY   59  51  75 W13       29.80R
CAMP DOUGLAS   PTSUNNY   59  50  72 W15G24    29.81R
$$

WIZ011>013-019>022-031-037>040-048>050-292200-
NORTHEAST WISCONSIN

CITY           SKY/WX    TMP DP  RH WIND       PRES   REMARKS
ANTIGO         PTSUNNY   58  50  74 W16G23    29.73F
SHAWANO        CLOUDY    64  50  61 SW9G18    29.73S
OCONTO         PTSUNNY   67  48  51 SW22G28   29.71S
STURGEON BAY   PTSUNNY   64  47  53 W23G29    29.72R
GREEN BAY      PTSUNNY   61  50  67 NW20G32   29.76R
MANITOWOC      CLOUDY    68  45  43 W22G28    29.76S
APPLETON       PTSUNNY   63  43  48 W20G30    29.76R
CLINTONVILLE   PTSUNNY   61  50  67 W10       29.74F
OSHKOSH        MOSUNNY   67  47  48 NW18      29.76F
$$

WIZ032>034-041-042-053>061-292200-
SOUTHWEST WISCONSIN

CITY           SKY/WX    TMP DP  RH WIND       PRES   REMARKS
LA CROSSE      MOSUNNY   66  53  63 NW7       29.81F
SPARTA         CLOUDY    61  51  70 SW7G20    29.83S
VIROQUA        PTSUNNY   66  45  46 MISG      29.83S
BOSCOBEL       PTSUNNY   70  45  40 NW13G29   29.83F
PRAIRIE DU CHI PTSUNNY   70  41  34 W20G26    29.84S
PLATTEVILLE    MOSUNNY   70  45  40 W22G35    29.85F
$$

WIZ056-057-062-063-064-067-068-292200-
SOUTH CENTRAL WISCONSIN

CITY           SKY/WX    TMP DP  RH WIND       PRES   REMARKS
REEDSBURG      PTSUNNY   65  45  47 W15G25    29.81S
BARABOO/DELLS  MOSUNNY   65  44  45 W15G21    29.81S
LONE ROCK      LGT RAIN  68  46  45 W16G26    29.82F
MINERAL POINT  MOSUNNY   68  43  40 W18G26    29.84S
MADISON        PTSUNNY   67  45  45 NW9G18    29.81F
MIDDLETON      PTSUNNY   68  46  45 W12G17    29.83S
WATERTOWN      PTSUNNY   67  46  47 W16G23    29.81S
MONROE         MOSUNNY   68  43  40 W21G31    29.84F
JANESVILLE     PTSUNNY   72  45  37 W14G23    29.83S
$$

WIZ051-052-058>065-066-070>072-292200-
SOUTHEAST WISCONSIN

CITY           SKY/WX    TMP DP  RH WIND       PRES   REMARKS
MILWAUKEE      MOSUNNY   72  45  37 W18G28    29.80S
WAUKESHA       PTSUNNY   66  46  48 W17G29    29.82S
MILWAUKEE/TIMM PTSUNNY   68  43  40 W13G23    29.81S
RACINE         MOSUNNY   72  44  36 W20G31    29.81F
KENOSHA        MOSUNNY   72  46  39 W23G37    29.80F
FOND DU LAC    PTSUNNY   69  44  40 W20G28    29.77S
SHEBOYGAN      PTSUNNY   66  48  52 W18G24    29.77S
WEST BEND      CLOUDY    68  45  42 W16G22    29.79F
JUNEAU         CLOUDY    65  46  50 W14G24    29.82S
$$

LSZ147-162-292200-
LAKE SUPERIOR

STATION/POSITION TIME  TEMP    WIND        PRES    WAVE
                       AIR SEA DIR/SP/G            HT/PER
                 (UTC) (F)     (DEG/KT/KT) (MB)    (FT/S)
W MID LAKE BUOY  2050   44 38  250/ 17/ 19 1003.6R   3/ 4
DEVILS ISLAND    2100   47     240/ 18/ 20 1005.3R
PORT WING        2040   54     260/ 15/ 20 1006.4S
SAXON HARBOR     2040   62     290/  9/ 21 1005.1F
$$

LMZ867-665-643>646-292200-
LAKE MICHIGAN

STATION/POSITION TIME  TEMP    WIND        PRES    WAVE
                       AIR SEA DIR/SP/G            HT/PER
                 (UTC) (F)     (DEG/KT/KT) (MB)    (FT/S)
CHAMBERS ISLAND  2040   63     230/  8/ 21 1005.1R
N MID LAKE BUOY  2050   49 41  190/ 12/ 16 1006.3F   2/ 4
NORTHPORT PIER   2040   68     210/  6/ 19 1004.7S
KEWAUNEE LAKESHO 2048   64     270/  9/ 15 1006.7R
SHEBOYGAN LAKESH 2100   67     260/ 15/ 21 1007.6F
PORT WASHINGTON  2030   69     250/ 13/ 20 1009.8S
ATWATER BUOY     2009   64     250/ 14/ 19 1009.1R
MILWAUKEE LAKESH 2050   68     280/ 16/ 20   N/A
S MID LAKE BUOY  1950   55 48  310/  8/  8 1010.0R   1/ 3
KENOSHA   LAKESH 2100   71     260/ 18/ 34 1009.1
$$

TC  - TEMPERATURE IN CELSIUS
VSB - VISIBILITY IN STATUTE MILES
WCI - WIND CHILL INDEX
HX  - HEAT INDEX





USA.gov is the U.S. government's official web portal to all federal, state and local government web resources and services.